• In Lithuania
  • List of Countries
  • For 7 days
  • Water Temperature
  • Satellite Maps
  • Weather Map
  • Weather Widgets
  • user-avatar
    Login

    Hourly Weather Fatwa

    Today, 19 June, Tuesday

    Time Temperature Precipitation Wind Pressure Humidity
    00:00 +39°C° 0 mm 3 mps 743 mmHg 44%
    01:00 +38°C° 0 mm 3 mps 743 mmHg 46%
    02:00 +38°C° 0 mm 3 mps 743 mmHg 47%
    03:00 +37°C° 0 mm 3 mps 743 mmHg 49%
    04:00 +37°C° 0 mm 3 mps 743 mmHg 51%
    05:00 +36°C° 0 mm 3 mps 743 mmHg 52%
    06:00 +35°C° 0 mm 1 mps 744 mmHg 58%
    07:00 +36°C° 0 mm 1 mps 744 mmHg 53%
    08:00 +38°C° 0 mm 2 mps 744 mmHg 49%
    09:00 +39°C° 0 mm 2 mps 744 mmHg 44%
    10:00 +40°C° 0 mm 2 mps 744 mmHg 40%
    11:00 +42°C° 0 mm 2 mps 744 mmHg 36%
    12:00 +43°C° 0 mm 2 mps 744 mmHg 31%
    13:00 +45°C° 0 mm 2 mps 744 mmHg 29%
    14:00 +45°C° 0 mm 2 mps 743 mmHg 27%
    15:00 +46°C° 0 mm 3 mps 743 mmHg 25%
    16:00 +45°C° 0 mm 3 mps 743 mmHg 26%
    17:00 +45°C° 0 mm 4 mps 742 mmHg 27%
    18:00 +44°C° 0 mm 4 mps 742 mmHg 28%
    19:00 +44°C° 0 mm 3 mps 743 mmHg 29%
    20:00 +42°C° 0 mm 2 mps 743 mmHg 31%
    21:00 +42°C° 0 mm 1 mps 743 mmHg 32%
    22:00 +41°C° 0 mm 1 mps 743 mmHg 33%
    23:00 +41°C° 0 mm 1 mps 743 mmHg 33%

    Tomorrow, 20 June, Wednesday

    Time Temperature Precipitation Wind Pressure Humidity
    00:00 +41°C° 0 mm 1 mps 743 mmHg 34%
    01:00 +40°C° 0 mm 1 mps 743 mmHg 34%
    02:00 +40°C° 0 mm 1 mps 743 mmHg 35%
    03:00 +39°C° 0 mm 1 mps 742 mmHg 35%
    04:00 +39°C° 0 mm 1 mps 742 mmHg 37%
    05:00 +37°C° 0 mm 1 mps 743 mmHg 38%
    06:00 +38°C° 0 mm 2 mps 743 mmHg 40%
    07:00 +39°C° 0 mm 2 mps 743 mmHg 37%
    08:00 +41°C° 0 mm 2 mps 744 mmHg 35%
    09:00 +42°C° 0 mm 2 mps 745 mmHg 32%
    10:00 +45°C° 0 mm 2 mps 745 mmHg 28%
    11:00 +45°C° 0 mm 1 mps 744 mmHg 25%
    12:00 +46°C° 0 mm 1 mps 744 mmHg 21%
    13:00 +46°C° 0 mm 1 mps 744 mmHg 21%
    14:00 +46°C° 0 mm 1 mps 743 mmHg 20%
    15:00 +46°C° 0 mm 1 mps 743 mmHg 20%
    16:00 +46°C° 0 mm 1 mps 743 mmHg 20%
    17:00 +46°C° 0 mm 1 mps 742 mmHg 19%
    18:00 +47°C° 0 mm 2 mps 742 mmHg 19%
    19:00 +45°C° 0 mm 1 mps 742 mmHg 20%
    20:00 +44°C° 0 mm 1 mps 742 mmHg 21%
    21:00 +44°C° 0 mm 1 mps 743 mmHg 22%
    22:00 +43°C° 0 mm 2 mps 743 mmHg 25%
    23:00 +42°C° 0 mm 2 mps 743 mmHg 28%

    Day after tomorrow, 21 June, Thursday

    Time Temperature Precipitation Wind Pressure Humidity
    00:00 +42°C° 0 mm 3 mps 743 mmHg 31%
    01:00 +40°C° 0 mm 3 mps 743 mmHg 34%
    02:00 +40°C° 0 mm 3 mps 743 mmHg 38%
    03:00 +39°C° 0 mm 3 mps 743 mmHg 42%
    04:00 +38°C° 0 mm 3 mps 743 mmHg 44%
    05:00 +38°C° 0 mm 3 mps 743 mmHg 46%
    06:00 +38°C° 0 mm 3 mps 743 mmHg 48%
    07:00 +39°C° 0 mm 3 mps 744 mmHg 45%
    08:00 +40°C° 0 mm 3 mps 744 mmHg 41%
    09:00 +42°C° 0 mm 3 mps 744 mmHg 37%
    10:00 +43°C° 0 mm 2 mps 744 mmHg 32%
    11:00 +45°C° 0 mm 2 mps 744 mmHg 28%
    12:00 +47°C° 0 mm 2 mps 744 mmHg 24%
    13:00 +47°C° 0 mm 2 mps 743 mmHg 22%
    14:00 +48°C° 0 mm 2 mps 743 mmHg 20%
    15:00 +48°C° 0 mm 2 mps 742 mmHg 19%
    16:00 +48°C° 0 mm 2 mps 742 mmHg 19%
    17:00 +48°C° 0 mm 2 mps 741 mmHg 19%
    18:00 +47°C° 0 mm 2 mps 741 mmHg 19%
    19:00 +46°C° 0 mm 2 mps 742 mmHg 23%
    20:00 +45°C° 0 mm 3 mps 742 mmHg 26%
    21:00 +44°C° 0 mm 4 mps 743 mmHg 30%
    22:00 +43°C° 0 mm 4 mps 743 mmHg 35%
    23:00 +42°C° 0 mm 5 mps 743 mmHg 39%

    22 June, Friday

    Time Temperature Precipitation Wind Pressure Humidity
    00:00 +41°C° 0 mm 5 mps 743 mmHg 44%
    01:00 +41°C° 0 mm 4 mps 743 mmHg 45%
    02:00 +40°C° 0 mm 4 mps 742 mmHg 45%
    03:00 +39°C° 0 mm 3 mps 742 mmHg 45%
    04:00 +39°C° 0 mm 3 mps 742 mmHg 46%
    05:00 +38°C° 0 mm 2 mps 743 mmHg 48%
    06:00 +38°C° 0 mm 2 mps 743 mmHg 49%
    07:00 +38°C° 0 mm 3 mps 743 mmHg 47%
    08:00 +39°C° 0 mm 3 mps 744 mmHg 44%
    09:00 +40°C° 0 mm 3 mps 744 mmHg 42%
    10:00 +43°C° 0 mm 3 mps 744 mmHg 37%
    11:00 +43°C° 0 mm 2 mps 744 mmHg 32%
    12:00 +46°C° 0 mm 2 mps 744 mmHg 27%
    13:00 +47°C° 0 mm 2 mps 743 mmHg 24%
    14:00 +47°C° 0 mm 1 mps 742 mmHg 22%
    15:00 +48°C° 0 mm 1 mps 741 mmHg 19%
    16:00 +48°C° 0 mm 1 mps 741 mmHg 19%
    17:00 +47°C° 0 mm 1 mps 741 mmHg 19%
    18:00 +47°C° 0 mm 1 mps 741 mmHg 19%
    19:00 +47°C° 0 mm 3 mps 741 mmHg 24%
    20:00 +45°C° 0 mm 4 mps 741 mmHg 29%
    21:00 +45°C° 0 mm 5 mps 742 mmHg 33%
    22:00 +43°C° 0 mm 5 mps 742 mmHg 36%
    23:00 +42°C° 0 mm 6 mps 742 mmHg 40%

    23 June, Saturday

    Time Temperature Precipitation Wind Pressure Humidity
    00:00 +41°C° 0 mm 7 mps 742 mmHg 43%
    01:00 +41°C° 0 mm 6 mps 742 mmHg 43%
    02:00 +40°C° 0 mm 5 mps 742 mmHg 43%
    03:00 +40°C° 0 mm 4 mps 742 mmHg 44%
    04:00 +40°C° 0 mm 4 mps 742 mmHg 46%
    05:00 +38°C° 0 mm 4 mps 742 mmHg 48%
    06:00 +37°C° 0 mm 4 mps 743 mmHg 50%
    07:00 +38°C° 0 mm 4 mps 743 mmHg 47%
    08:00 +40°C° 0 mm 4 mps 744 mmHg 44%
    09:00 +41°C° 0 mm 4 mps 744 mmHg 42%
    10:00 +42°C° 0 mm 4 mps 744 mmHg 38%
    11:00 +44°C° 0 mm 3 mps 744 mmHg 35%
    12:00 +45°C° 0 mm 3 mps 744 mmHg 32%
    13:00 +46°C° 0 mm 3 mps 743 mmHg 30%
    14:00 +47°C° 0 mm 3 mps 742 mmHg 28%
    15:00 +47°C° 0 mm 3 mps 741 mmHg 27%
    16:00 +48°C° 0 mm 4 mps 741 mmHg 28%
    17:00 +47°C° 0 mm 4 mps 741 mmHg 30%
    18:00 +46°C° 0 mm 5 mps 740 mmHg 31%
    19:00 +45°C° 0 mm 6 mps 741 mmHg 37%
    20:00 +43°C° 0 mm 7 mps 741 mmHg 42%
    21:00 +40°C° 0 mm 8 mps 741 mmHg 48%
    22:00 +39°C° 0 mm 7 mps 742 mmHg 50%
    23:00 +39°C° 0 mm 7 mps 742 mmHg 52%

    24 June, Sunday

    Time Temperature Precipitation Wind Pressure Humidity
    00:00 +38°C° 0 mm 7 mps 742 mmHg 55%
    01:00 +36°C° 0 mm 7 mps 741 mmHg 57%
    02:00 +36°C° 0 mm 6 mps 741 mmHg 60%
    03:00 +35°C° 0 mm 6 mps 741 mmHg 63%
    04:00 +35°C° 0 mm 6 mps 741 mmHg 63%
    05:00 +35°C° 0 mm 6 mps 741 mmHg 63%
    06:00 +35°C° 0 mm 5 mps 741 mmHg 63%
    07:00 +36°C° 0.1 mm 5 mps 742 mmHg 60%
    08:00 +37°C° 0.1 mm 5 mps 742 mmHg 57%
    09:00 +39°C° 0.1 mm 5 mps 743 mmHg 54%
    10:00 +40°C° 0 mm 5 mps 743 mmHg 49%
    11:00 +41°C° 0 mm 4 mps 743 mmHg 45%
    12:00 +42°C° 0 mm 4 mps 742 mmHg 41%
    13:00 +43°C° 0 mm 4 mps 742 mmHg 39%
    14:00 +44°C° 0 mm 4 mps 741 mmHg 36%
    15:00 +45°C° 0 mm 4 mps 741 mmHg 34%
    16:00 +45°C° 0 mm 5 mps 740 mmHg 35%
    17:00 +44°C° 0 mm 6 mps 740 mmHg 37%
    18:00 +44°C° 0 mm 6 mps 740 mmHg 39%
    19:00 +41°C° 0.2 mm 6 mps 740 mmHg 43%
    20:00 +40°C° 0.2 mm 6 mps 741 mmHg 48%
    21:00 +38°C° 0.2 mm 6 mps 741 mmHg 53%
    22:00 +38°C° 0.6 mm 6 mps 741 mmHg 56%
    23:00 +36°C° 0.6 mm 6 mps 742 mmHg 59%
    Show more